Regional Weather Roundup
Issued by NWS

Home | Current Version | Previous Version | Graphics & Text | Print | Product List | Glossary On
Versions: 1 2 3 4 5 6 7 8 9 10 11 12 13 14 15 16 17 18 19 20 21 22 23 24 25 26 27 28 29 30 31 32 33 34 35 36 37 38 39 40 41 42 43 44 45 46 47 48 49 50
000
ASUS43 KBIS 221010
RWRND

NORTH DAKOTA REGIONAL WEATHER ROUNDUP
NATIONAL WEATHER SERVICE BISMARCK ND
500 AM CDT WED OCT 22 2014

NOTE: "FAIR" INDICATES FEW OR NO CLOUDS BELOW 12,000 FEET WITH NO
SIGNIFICANT WEATHER AND/OR OBSTRUCTIONS TO VISIBILITY.


NDZ001>003-009>011-017-221100-
NORTHWEST NORTH DAKOTA

CITY           SKY/WX    TMP DP  RH WIND       PRES   REMARKS
WILLISTON      MOCLDY    53  46  77 SW21      29.71R
MINOT          CLEAR     56  45  66 SW10      29.64R
MINOT AFB      PTCLDY    53  47  78 W8        29.63R
$$

NDZ018>021-031>035-040>046-221100-
SOUTHWEST NORTH DAKOTA

CITY           SKY/WX    TMP DP  RH WIND       PRES   REMARKS
BISMARCK       PTCLDY    56  47  71 CALM      29.70R
DICKINSON      CLEAR     52  45  77 W23G31    29.75R
GARRISON         N/A     55  45  68 W7        29.67R
HETTINGER ARPT PTCLDY    51  44  77 W17       29.81R
$$

NDZ004>008-012>016-024-026-027-054-221100-
NORTHEAST NORTH DAKOTA

CITY           SKY/WX    TMP DP  RH WIND       PRES   REMARKS
GRAND FORKS    LGT RAIN  55  42  61 S23G39    29.80F
GRND FRKS AFB  PTCLDY    55  42  62 S20G28    29.79S
DEVILS LAKE    CLEAR     57  41  54 S21G26    29.70S
$$

NDZ022-023-025-028>030-036>039-047>053-221100-
SOUTHEAST NORTH DAKOTA

CITY           SKY/WX    TMP DP  RH WIND       PRES   REMARKS
FARGO          PTCLDY    56  41  57 SE25G38   29.86F
JAMESTOWN      PTCLDY    58  41  53 S16G24    29.76R
$$




USA.gov is the U.S. government's official web portal to all federal, state and local government web resources and services.